This is the latest recevied weather packets stored in our database for station/object W6MAF. If no packets are shown the sender has not sent any weather packets the latest 10 day(s).
| Time | Temp. | Humidity | Pressure | Rain* | Wind** | Luminosity | Snow |
|---|---|---|---|---|---|---|---|
| 1788162349 | 17.78° C | 70% | - | 0 mm | 5.36 m/s, 225° | - | - |
| 1788162052 | 17.78° C | 71% | - | 0 mm | 4.92 m/s, 184° | - | - |
| 1788161754 | 17.78° C | 72% | - | 0 mm | 5.36 m/s, 208° | - | - |
| 1788161454 | 17.78° C | 73% | - | 0 mm | 5.36 m/s, 204° | - | - |
| 1788161453 | 17.78° C | 73% | - | 0 mm | 5.36 m/s, 204° | - | - |
| 1788161155 | 17.78° C | 74% | - | 0 mm | 4.02 m/s, 170° | - | - |
| 1788160858 | 17.78° C | 74% | - | 0 mm | 4.47 m/s, 204° | - | - |
| 1788160560 | 17.78° C | 74% | - | 0 mm | 4.02 m/s, 191° | - | - |
| 1788160262 | 17.78° C | 75% | - | 0 mm | 5.36 m/s, 224° | - | - |
| 1788159964 | 17.78° C | 75% | - | 0 mm | 4.47 m/s, 224° | - | - |
| 1788159663 | 17.78° C | 75% | - | 0 mm | 4.92 m/s, 217° | - | - |
| 1788159366 | 18.33° C | 75% | - | 0 mm | 4.92 m/s, 211° | - | - |
| 1788159068 | 17.78° C | 75% | - | 0 mm | 4.47 m/s, 219° | - | - |
| 1788158770 | 17.78° C | 74% | - | 0 mm | 4.92 m/s, 198° | - | - |
| 1788158472 | 17.78° C | 74% | - | 0 mm | 4.47 m/s, 215° | - | - |
| 1788158175 | 18.33° C | 73% | - | 0 mm | 4.47 m/s, 217° | - | - |
| 1788157910 | 18.33° C | 73% | - | 0 mm | 5.36 m/s, 205° | - | - |
| 1788157874 | 18.33° C | 73% | - | 0 mm | 5.36 m/s, 205° | - | - |
| 1788157634 | 18.33° C | 72% | - | 0 mm | 4.92 m/s, 207° | - | - |
| 1788157576 | 18.33° C | 72% | - | 0 mm | 4.92 m/s, 207° | - | - |
| 1788157278 | 18.33° C | 70% | - | 0 mm | 5.81 m/s, 194° | - | - |
| 1788156981 | 18.33° C | 67% | - | 0 mm | 5.36 m/s, 194° | - | - |
| 1788156683 | 18.89° C | 64% | - | 0 mm | 5.36 m/s, 240° | - | - |
| 1788156385 | 18.89° C | 60% | - | 0 mm | 5.81 m/s, 240° | - | - |
| 1788156084 | 18.89° C | 57% | - | 0 mm | 4.92 m/s, 217° | - | - |
* Rain latest hour (hover to see other rain measurements)
** Current wind speed in m/s (hover to see current wind gust speed)